Location: Newark
(52.9422°N, 12.3972°E)
Time: 17:59:44
(UTC+00:00)

Envisat - Visible Passes

Search period start: 22 September 2020 00:00
Search period end: 02 October 2020 00:00
Orbit: 764 x 766 km, 98.1° (Epoch: 22 September)

Date Brightness Start Highest point End Pass type
(mag) Time Alt. Az. Time Alt. Az. Time Alt. Az.
22 Sep 6.5 03:42:28 10° ENE 03:44:18 12° E 03:46:08 10° ESE visible
23 Sep 6.2 17:44:26 10° SW 17:47:49 18° W 17:51:12 10° NW visible
24 Sep 6.0 04:06:33 10° NE 04:10:08 19° E 04:13:43 10° SE visible
25 Sep 6.8 18:12:28 10° W 18:13:40 11° W 18:14:51 10° WNW visible
26 Sep 6.0 17:32:28 10° SW 17:36:18 21° W 17:40:10 10° NW visible
27 Sep 6.2 03:55:36 10° NE 03:58:37 16° E 04:01:39 10° ESE visible
28 Sep 6.4 17:59:40 10° WSW 18:02:07 13° W 18:04:34 10° NW visible
29 Sep 5.7 04:20:15 10° NE 04:24:24 25° E 04:28:32 10° SE visible
29 Sep 5.7 17:20:37 10° SSW 17:24:49 26° W 17:29:03 10° NW visible
30 Sep 6.4 03:44:51 10° ENE 03:47:05 13° E 03:49:19 10° ESE visible
01 Oct 6.2 17:47:25 10° SW 17:50:35 16° W 17:53:45 10° NW visible
